�N����,����,�g�[���i�䏊�j���x,�g�[�����x,��g�[���i��Q���j���x,����
 2002/11/01, 0:00,20.2,56,17,16.3
 2002/11/01, 0:15,20.1,56,17,16.3
 2002/11/01, 0:30,20,56,17,16.3
 2002/11/01, 0:45,19.9,57,16.9,15.6
 2002/11/01, 1:00,20,57,17,16.5
 2002/11/01, 1:15,19.8,58,16.9,16.5
 2002/11/01, 1:30,19.6,58,16.9,16.5
 2002/11/01, 1:45,19.4,59,16.9,16.5
 2002/11/01, 2:00,19.5,60,16.7,16.5
 2002/11/01, 2:15,19.5,59,16.8,16.5
 2002/11/01, 2:30,19.5,58,16.7,16.5
 2002/11/01, 2:45,19.2,60,16.6,16.6
 2002/11/01, 3:00,19.3,60,16.6,16.6
 2002/11/01, 3:15,19.3,59,16.7,16.6
 2002/11/01, 3:30,19.2,60,16.5,16.6
 2002/11/01, 3:45,19.1,60,16.5,16.6
 2002/11/01, 4:00,19,60,16.5,16.6
 2002/11/01, 4:15,19,60,16.5,16.6
 2002/11/01, 4:30,19,60,16.4,16.6
 2002/11/01, 4:45,18.9,60,16.4,16.6
 2002/11/01, 5:00,18.9,60,16.3,16.6
 2002/11/01, 5:15,18.8,60,16.3,16.6
 2002/11/01, 5:30,18.8,60,16.4,16.6
 2002/11/01, 5:45,18.7,61,16.3,16.6
 2002/11/01, 6:00,18.7,60,16.4,16.6
 2002/11/01, 6:15,18.7,61,16.2,16.6
 2002/11/01, 6:30,18.6,61,16.2,16.6
 2002/11/01, 6:45,18.7,62,16.2,14.9
 2002/11/01, 7:00,18.8,62,16.3,14.8
 2002/11/01, 7:15,19,62,16.3,15.2
 2002/11/01, 7:30,19,63,16.3,15.3
 2002/11/01, 7:45,19,62,16.2,15.3
 2002/11/01, 8:00,19,62,16.2,15.1
 2002/11/01, 8:15,19,61,16.3,15.1
 2002/11/01, 8:30,19.3,61,16.3,15.1
 2002/11/01, 8:45,19,61,16.3,15.1
 2002/11/01, 9:00,19,61,16.3,15
 2002/11/01, 9:15,18.8,61,16.3,15.1
 2002/11/01, 9:30,18.9,60,16.3,15.4
 2002/11/01, 9:45,18.8,60,16.2,16.1
 2002/11/01,10:00,18.7,60,16.2,16.1
 2002/11/01,10:15,18.7,60,16.2,16.1
 2002/11/01,10:30,18.7,60,16.2,16.2
 2002/11/01,10:45,18.7,60,16.3,16.2
 2002/11/01,11:00,18.7,60,16.3,16.2
 2002/11/01,11:15,18.7,60,16.3,16.2
 2002/11/01,11:30,18.7,60,16.2,16.2
 2002/11/01,11:45,18.7,60,16.3,16.2
 2002/11/01,12:00,18.7,60,16.4,16.2
 2002/11/01,12:15,18.7,60,16.4,16.2
 2002/11/01,12:30,18.8,60,16.5,16.2
 2002/11/01,12:45,18.9,60,16.8,16.2
 2002/11/01,13:00,19,60,17,16.2
 2002/11/01,13:15,19.1,59,17.2,16.2
 2002/11/01,13:30,19.3,59,17.8,16.3
 2002/11/01,13:45,19.5,59,18.1,16.3
 2002/11/01,14:00,19.4,59,17.9,16.3
 2002/11/01,14:15,19.5,59,18.2,16.3
 2002/11/01,14:30,19.6,59,18.5,16.3
 2002/11/01,14:45,19.6,59,18.5,16.3
 2002/11/01,15:00,19.6,60,18.4,16.3
 2002/11/01,15:15,19.6,59,18.4,16.3
 2002/11/01,15:30,19.5,60,18.4,16.3
 2002/11/01,15:45,19.5,60,18.3,15
 2002/11/01,16:00,19.5,60,18.2,15
 2002/11/01,16:15,19.5,60,18.1,15
 2002/11/01,16:30,19.5,61,18.2,15.2
 2002/11/01,16:45,19.8,60,18.1,16.4
 2002/11/01,17:00,20.3,66,18.1,16.4
 2002/11/01,17:15,20.3,61,18.2,15.7
 2002/11/01,17:30,21,82,18.1,15.8
 2002/11/01,17:45,21.8,60,18.2,15.8
 2002/11/01,18:00,21.8,61,18.2,15.9
 2002/11/01,18:15,21.4,60,18.2,16
 2002/11/01,18:30,21.3,60,18.2,16
 2002/11/01,18:45,20.9,61,18,16
 2002/11/01,19:00,20.7,60,18.1,16
 2002/11/01,19:15,20.7,59,18.1,16.1
 2002/11/01,19:30,20.6,60,17.9,16.3
 2002/11/01,19:45,20.8,62,17.9,16.3
 2002/11/01,20:00,21.2,62,18,16.3
 2002/11/01,20:15,20.8,64,17.9,16.4
 2002/11/01,20:30,20.9,65,17.9,16.4
 2002/11/01,20:45,20.8,64,18,16
 2002/11/01,21:00,20.9,63,18,16
 2002/11/01,21:15,20.7,61,17.8,16.1
 2002/11/01,21:30,20.6,60,17.8,16.2
 2002/11/01,21:45,20.5,58,17.8,16.2
 2002/11/01,22:00,20.4,58,17.8,16.2
 2002/11/01,22:15,22.2,53,17.9,16.4
 2002/11/01,22:30,23.2,51,18.3,16.5
 2002/11/01,22:45,23.9,47,18.7,16.5
 2002/11/01,23:00,24.7,45,19,16.5
 2002/11/01,23:15,25.2,43,19.2,16.5
 2002/11/01,23:30,23.4,47,19,16.5
 2002/11/01,23:45,22.3,50,18.6,16.5
 2002/11/02, 0:00,21.7,52,18.4,16.5
 2002/11/02, 0:15,21.5,51,18.3,16.6
 2002/11/02, 0:30,21.2,51,18,16.6
 2002/11/02, 0:45,20.7,53,17.9,15.9
 2002/11/02, 1:00,20.4,53,17.8,15.9
 2002/11/02, 1:15,20.2,53,17.7,15.9
 2002/11/02, 1:30,20,53,17.6,15.9
 2002/11/02, 1:45,19.8,53,17.5,15.9
 2002/11/02, 2:00,19.6,54,17.3,16
 2002/11/02, 2:15,19.6,54,17.3,16
 2002/11/02, 2:30,19.4,54,17.2,16
 2002/11/02, 2:45,19.3,54,17,16
 2002/11/02, 3:00,19.1,54,16.9,16
 2002/11/02, 3:15,19,54,16.7,16
 2002/11/02, 3:30,18.9,54,16.7,16
 2002/11/02, 3:45,18.8,54,16.5,16
 2002/11/02, 4:00,18.7,54,16.5,16.1
 2002/11/02, 4:15,18.6,54,16.4,16.1
 2002/11/02, 4:30,18.5,54,16.3,16.1
 2002/11/02, 4:45,18.3,55,16.1,16.1
 2002/11/02, 5:00,18.3,54,16,16.1
 2002/11/02, 5:15,18.2,54,16,16.1
 2002/11/02, 5:30,18.1,54,15.9,16.1
 2002/11/02, 5:45,17.9,55,15.7,16.1
 2002/11/02, 6:00,17.9,54,15.7,16.1
 2002/11/02, 6:15,17.8,55,15.6,16.1
 2002/11/02, 6:30,17.6,55,15.4,16.1
 2002/11/02, 6:45,17.5,55,15.4,16.1
 2002/11/02, 7:00,17.4,55,15.4,16.1
 2002/11/02, 7:15,17.4,55,15.3,16.1
 2002/11/02, 7:30,17.4,55,15.3,17.4
 2002/11/02, 7:45,17.4,55,14.9,17.4
 2002/11/02, 8:00,17.8,55,14.8,17.1
 2002/11/02, 8:15,18.1,55,14.8,17
 2002/11/02, 8:30,18,55,14.8,17
 2002/11/02, 8:45,17.8,53,14.6,17
 2002/11/02, 9:00,17.9,55,15.1,17
 2002/11/02, 9:15,18.2,56,15.2,17
 2002/11/02, 9:30,18.3,55,15.3,16.9
 2002/11/02, 9:45,18.3,55,15.4,16.9
 2002/11/02,10:00,18.5,54,15.3,16.9
 2002/11/02,10:15,18.3,54,15.3,16.9
 2002/11/02,10:30,18.2,54,15.4,15
 2002/11/02,10:45,18.2,53,15.5,15
 2002/11/02,11:00,18.8,73,15.5,15
 2002/11/02,11:15,19,54,15.6,15
 2002/11/02,11:30,19,52,15.6,14.6
 2002/11/02,11:45,18.8,51,15.6,14.6
 2002/11/02,12:00,18.8,51,15.7,14.7
 2002/11/02,12:15,18.8,51,16,14.7
 2002/11/02,12:30,19,50,16.2,14.7
 2002/11/02,12:45,19,50,16,14.7
 2002/11/02,13:00,18.8,51,16,14.7
 2002/11/02,13:15,18.7,51,16.1,14.7
 2002/11/02,13:30,18.8,51,16.1,14.4
 2002/11/02,13:45,19,51,16.5,16.4
 2002/11/02,14:00,19,51,16.5,16.4
 2002/11/02,14:15,19.4,50,16.9,16.4
 2002/11/02,14:30,19.3,50,16.8,16.4
 2002/11/02,14:45,19.2,50,16.9,16.4
 2002/11/02,15:00,19.3,49,16.9,16.4
 2002/11/02,15:15,19.1,50,16.7,16.4
 2002/11/02,15:30,19,49,16.6,16.4
 2002/11/02,15:45,18.9,49,16.5,16.4
 2002/11/02,16:00,18.8,49,16.4,16.4
 2002/11/02,16:15,18.8,49,16.3,16.4
 2002/11/02,16:30,18.7,50,16.1,16.4
 2002/11/02,16:45,18.7,49,16.1,16.4
 2002/11/02,17:00,18.7,49,16,16.4
 2002/11/02,17:15,19,51,16.1,15.5
 2002/11/02,17:30,19.4,55,16.2,15.6
 2002/11/02,17:45,19.9,54,16.2,15.6
 2002/11/02,18:00,20.2,60,16.3,15.6
 2002/11/02,18:15,20.6,53,16.3,15.1
 2002/11/02,18:30,20.4,51,16.2,15.2
 2002/11/02,18:45,20.1,52,16.3,15.2
 2002/11/02,19:00,20.1,53,16.5,15.2
 2002/11/02,19:15,20.3,55,16.7,15.2
 2002/11/02,19:30,20.2,54,17,15.2
 2002/11/02,19:45,20.2,54,17,14.8
 2002/11/02,20:00,20.3,53,16.7,14.8
 2002/11/02,20:15,20.4,51,16.6,14.8
 2002/11/02,20:30,20.1,51,16.9,16.2
 2002/11/02,20:45,20.1,51,16.7,16.3
 2002/11/02,21:00,19.9,50,16.5,16.2
 2002/11/02,21:15,19.9,52,16.5,16.2
 2002/11/02,21:30,19.6,52,16.4,16.2
 2002/11/02,21:45,19.5,52,16.3,16.2
 2002/11/02,22:00,19.4,52,16.2,16.2
 2002/11/02,22:15,19.5,54,16.2,16.2
 2002/11/02,22:30,19.5,53,16.1,16.2
 2002/11/02,22:45,19.3,53,16.2,16.1
 2002/11/02,23:00,19,54,16,16.3
 2002/11/02,23:15,19,54,16,16.3
 2002/11/02,23:30,19,55,15.9,16.3
 2002/11/02,23:45,19,54,15.8,16.3
 2002/11/03, 0:00,19.3,54,15.8,16.3
 2002/11/03, 0:15,19.3,53,15.8,15
 2002/11/03, 0:30,19,53,15.7,15
 2002/11/03, 0:45,18.9,53,15.6,15
 2002/11/03, 1:00,18.6,53,15.4,15.1
 2002/11/03, 1:15,18.5,52,15.3,15.1
 2002/11/03, 1:30,18.4,52,15.2,15.1
 2002/11/03, 1:45,18.1,53,15.1,15.1
 2002/11/03, 2:00,18.1,52,14.9,15.1
 2002/11/03, 2:15,17.9,52,14.9,15.1
 2002/11/03, 2:30,17.7,52,14.8,15.1
 2002/11/03, 2:45,17.4,53,14.7,15.1
 2002/11/03, 3:00,17.3,52,14.5,15.1
 2002/11/03, 3:15,17.2,52,14.4,15.1
 2002/11/03, 3:30,17,53,14.2,15.1
 2002/11/03, 3:45,16.9,52,14.2,15.1
 2002/11/03, 4:00,16.9,52,14.1,15.1
 2002/11/03, 4:15,16.8,52,14,15.1
 2002/11/03, 4:30,16.6,52,13.9,15.1
 2002/11/03, 4:45,16.5,52,13.7,15
 2002/11/03, 5:00,16.4,52,13.7,15
 2002/11/03, 5:15,16.3,53,13.5,15
 2002/11/03, 5:30,16.3,52,13.4,15
 2002/11/03, 5:45,16.1,52,13.4,15
 2002/11/03, 6:00,16,52,13.3,14.9
 2002/11/03, 6:15,15.9,52,13.2,14.9
 2002/11/03, 6:30,15.9,52,13.1,14.9
 2002/11/03, 6:45,17.2,68,13,14.1
 2002/11/03, 7:00,17.8,53,12.9,14.2
 2002/11/03, 7:15,17.4,52,13,14.2
 2002/11/03, 7:30,17,53,12.8,14.3
 2002/11/03, 7:45,16.9,52,12.7,14.3
 2002/11/03, 8:00,16.6,52,12.8,14.2
 2002/11/03, 8:15,16.4,51,12.8,14.2
 2002/11/03, 8:30,16.2,51,12.7,14.2
 2002/11/03, 8:45,16.2,51,12.8,14.2
 2002/11/03, 9:00,16.4,52,12.8,14.2
 2002/11/03, 9:15,16.8,52,13,14.2
 2002/11/03, 9:30,16.8,52,13.1,14.2
 2002/11/03, 9:45,16.9,52,13.3,14.2
 2002/11/03,10:00,17.1,51,13.5,14.2
 2002/11/03,10:15,17.5,50,13.6,13.7
 2002/11/03,10:30,17.6,54,13.8,13.7
 2002/11/03,10:45,17.9,51,14,13.5
 2002/11/03,11:00,18.2,56,14.5,13.6
 2002/11/03,11:15,18.9,50,15,14.2
 2002/11/03,11:30,18.7,49,15.4,14.3
 2002/11/03,11:45,18.7,50,15.1,14.7
 2002/11/03,12:00,18.5,51,15,16.2
 2002/11/03,12:15,18.2,51,15,16.2
 2002/11/03,12:30,18.2,51,15.1,14.5
 2002/11/03,12:45,18.1,51,15.1,14.5
 2002/11/03,13:00,18,50,15.1,14.5
 2002/11/03,13:15,18.2,50,15.4,14.5
 2002/11/03,13:30,18.4,49,15.7,14.5
 2002/11/03,13:45,18.2,48,15.4,14.5
 2002/11/03,14:00,18.3,50,15.6,14.5
 2002/11/03,14:15,18.6,53,16.1,14.6
 2002/11/03,14:30,19,56,16.6,14.6
 2002/11/03,14:45,19.8,53,17.1,15.3
 2002/11/03,15:00,20.2,49,17.3,15.3
 2002/11/03,15:15,21.2,65,17.7,14.6
 2002/11/03,15:30,22.2,49,17.9,15.1
 2002/11/03,15:45,21.1,49,17.7,15.1
 2002/11/03,16:00,20.7,49,17.5,17.2
 2002/11/03,16:15,20.4,46,17.1,17.2
 2002/11/03,16:30,20.1,46,17.1,17.2
 2002/11/03,16:45,20.1,47,17,17.2
 2002/11/03,17:00,20.3,54,16.9,15.2
 2002/11/03,17:15,20.3,49,16.8,15.1
 2002/11/03,17:30,20.2,49,16.8,15.1
 2002/11/03,17:45,20.3,50,16.6,14.6
 2002/11/03,18:00,20.2,49,16.8,14.6
 2002/11/03,18:15,20.2,48,16.6,14.6
 2002/11/03,18:30,20.1,52,16.6,14.6
 2002/11/03,18:45,20.9,48,16.6,15.5
 2002/11/03,19:00,21.9,44,17,15.6
 2002/11/03,19:15,22.3,43,17,15.6
 2002/11/03,19:30,22.6,42,17.3,15.6
 2002/11/03,19:45,22.9,41,17.6,15.6
 2002/11/03,20:00,23,41,17.6,15.6
 2002/11/03,20:15,23.2,43,17.9,15.6
 2002/11/03,20:30,23.3,43,18,14.6
 2002/11/03,20:45,22.9,42,18,14.7
 2002/11/03,21:00,23.1,43,18,14.8
 2002/11/03,21:15,21.5,49,17.4,14.9
 2002/11/03,21:30,21.1,49,17.3,14.9
 2002/11/03,21:45,20.9,49,17.2,15
 2002/11/03,22:00,20.9,52,17.1,15
 2002/11/03,22:15,20.9,54,16.9,15
 2002/11/03,22:30,20.5,54,16.9,15
 2002/11/03,22:45,20.6,54,16.7,15
 2002/11/03,23:00,20.4,53,16.7,15.1
 2002/11/03,23:15,20.2,52,16.5,15.1
 2002/11/03,23:30,20,52,16.4,15.1
 2002/11/03,23:45,20,53,16.2,15.1
 2002/11/04, 0:00,19.9,53,16.2,15.1
 2002/11/04, 0:15,19.7,54,16.1,15.1
 2002/11/04, 0:30,19.6,53,16,15.1
 2002/11/04, 0:45,19.5,54,15.9,14.8
 2002/11/04, 1:00,19.1,54,15.7,14.9
 2002/11/04, 1:15,19,53,15.6,14.9
 2002/11/04, 1:30,18.8,52,15.6,14.9
 2002/11/04, 1:45,18.7,52,15.4,14.9
 2002/11/04, 2:00,18.6,52,15.3,14.9
 2002/11/04, 2:15,18.4,51,15.1,14.9
 2002/11/04, 2:30,18.2,52,15.1,14.9
 2002/11/04, 2:45,18.1,51,15,14.9
 2002/11/04, 3:00,17.9,52,14.9,14.9
 2002/11/04, 3:15,17.8,52,14.8,14.9
 2002/11/04, 3:30,17.7,52,14.8,14.9
 2002/11/04, 3:45,17.6,52,14.7,14.9
 2002/11/04, 4:00,17.4,52,14.6,14.9
 2002/11/04, 4:15,17.3,53,14.5,14.9
 2002/11/04, 4:30,17.2,53,14.4,14.9
 2002/11/04, 4:45,17.1,53,14.4,14.9
 2002/11/04, 5:00,16.9,53,14.3,14.9
 2002/11/04, 5:15,16.8,53,14.2,14.9
 2002/11/04, 5:30,16.7,53,14.1,14.9
 2002/11/04, 5:45,16.7,53,14,13.8
 2002/11/04, 6:00,16.7,53,13.6,13.8
 2002/11/04, 6:15,16.5,53,13.5,13.8
 2002/11/04, 6:30,16.4,53,13.3,13.8
 2002/11/04, 6:45,16.4,53,13.2,13.8
 2002/11/04, 7:00,16.3,53,13.1,13.8
 2002/11/04, 7:15,16.3,54,13.1,13.8
 2002/11/04, 7:30,16.6,53,13.3,13.4
 2002/11/04, 7:45,16.7,54,13.4,13.4
 2002/11/04, 8:00,17,58,13.5,16.1
 2002/11/04, 8:15,16.9,56,13.5,16.1
 2002/11/04, 8:30,16.9,55,13.6,16.1
 2002/11/04, 8:45,17.1,54,13.6,15.2
 2002/11/04, 9:00,17.2,53,13.6,15.2
 2002/11/04, 9:15,17.3,52,13.7,15.2
 2002/11/04, 9:30,17.1,47,11.8,14.1
 2002/11/04, 9:45,17.1,46,12.8,14.1
 2002/11/04,10:00,19,43,13.5,14.1
 2002/11/04,10:15,20.1,39,14.2,14.1
 2002/11/04,10:30,20.7,38,14.7,14.1
 2002/11/04,10:45,20.8,39,15,13.6
 2002/11/04,11:00,21.3,38,15.4,13.6
 2002/11/04,11:15,21.7,37,15.6,13.6
 2002/11/04,11:30,22,36,16,13.7
 2002/11/04,11:45,21.6,36,16.3,13.5
 2002/11/04,12:00,22,36,16.6,13.6
 2002/11/04,12:15,22,38,16.9,13.7
 2002/11/04,12:30,21.9,40,17,13.8
 2002/11/04,12:45,21.9,42,17.4,14.1
 2002/11/04,13:00,21.9,43,17.6,14.1
 2002/11/04,13:15,21.9,44,17.8,14
 2002/11/04,13:30,22.1,42,18.2,14
 2002/11/04,13:45,22,43,18.1,14
 2002/11/04,14:00,21.8,42,18.1,15
 2002/11/04,14:15,20.8,44,18.1,16.1
 2002/11/04,14:30,20.8,44,18.6,16.1
 2002/11/04,14:45,20.5,43,18.4,16.1
 2002/11/04,15:00,20.6,42,18.8,16.1
 2002/11/04,15:15,20.5,42,18.7,16.1
 2002/11/04,15:30,20,43,18.3,16.1
 2002/11/04,15:45,19.8,41,18.1,16.1
 2002/11/04,16:00,19.6,42,18,16.1
 2002/11/04,16:15,19.6,43,18.2,16.1
 2002/11/04,16:30,19.5,42,18.1,13.9
 2002/11/04,16:45,20.8,41,17.8,13.9
 2002/11/04,17:00,22,37,18,13.9
 2002/11/04,17:15,22.6,36,18.2,14
 2002/11/04,17:30,22.6,36,18.3,14
 2002/11/04,17:45,22.7,36,18.3,14
 2002/11/04,18:00,22.9,37,18.5,15.5
 2002/11/04,18:15,23.4,56,18.5,14.9
 2002/11/04,18:30,23.4,37,18.6,14.9
 2002/11/04,18:45,23.1,41,18.4,14.9
 2002/11/04,19:00,23,42,18.5,15.1
 2002/11/04,19:15,23.1,46,18.4,15.2
 2002/11/04,19:30,23.2,43,18.4,15.2
 2002/11/04,19:45,23.3,42,18.6,15.2
 2002/11/04,20:00,23.2,41,18.7,15.3
 2002/11/04,20:15,23.2,40,18.6,15.3
 2002/11/04,20:30,23.1,40,18.7,15.3
 2002/11/04,20:45,23.1,42,18.5,15.3
 2002/11/04,21:00,23.2,41,18.4,14.7
 2002/11/04,21:15,23.3,45,18.5,14.8
 2002/11/04,21:30,23.4,46,18.6,14.9
 2002/11/04,21:45,23.4,44,18.7,14.9
 2002/11/04,22:00,23.2,43,18.5,14.9
 2002/11/04,22:15,23.4,43,18.6,14.2
 2002/11/04,22:30,23.3,41,18.5,14.5
 2002/11/04,22:45,23.4,40,18.3,14.5
 2002/11/04,23:00,22.4,43,18.2,14.5
 2002/11/04,23:15,22.8,44,18.1,14.6
 2002/11/04,23:30,22.8,43,18.1,13.8
 2002/11/04,23:45,22,45,18,13.8
 2002/11/05, 0:00,21.2,45,17.5,13.9
 2002/11/05, 0:15,20.7,46,17.3,13.9
 2002/11/05, 0:30,20.5,47,17.1,13.9
 2002/11/05, 0:45,20.3,49,16.9,14.1
 2002/11/05, 1:00,20.3,46,16.5,14.4
 2002/11/05, 1:15,20.1,45,16.5,14.4
 2002/11/05, 1:30,19.8,44,16.2,14.4
 2002/11/05, 1:45,19.6,44,15.5,14.4
 2002/11/05, 2:00,19.5,43,15.1,14.4
 2002/11/05, 2:15,19.1,44,14.9,14.5
 2002/11/05, 2:30,19,44,14.7,14.5
 2002/11/05, 2:45,19,44,14.3,14.5
 2002/11/05, 3:00,18.7,45,14.2,14.5
 2002/11/05, 3:15,18.6,45,14.8,14.5
 2002/11/05, 3:30,18.5,44,14.8,14.5
 2002/11/05, 3:45,18.2,45,14.8,14.5
 2002/11/05, 4:00,18.1,45,14.6,14.6
 2002/11/05, 4:15,17.9,45,14.6,14.6
 2002/11/05, 4:30,17.8,45,14.5,14.6
 2002/11/05, 4:45,17.6,46,14.4,14.6
 2002/11/05, 5:00,17.4,46,14.3,14.6
 2002/11/05, 5:15,17.3,46,14.1,14.6
 2002/11/05, 5:30,17.2,46,14.1,14.6
 2002/11/05, 5:45,17,46,13.9,14.6
 2002/11/05, 6:00,16.9,46,13.8,14.6
 2002/11/05, 6:15,16.8,46,13.7,14.6
 2002/11/05, 6:30,16.7,47,13.5,14.6
 2002/11/05, 6:45,17,49,13.5,13.4
 2002/11/05, 7:00,17.2,48,13.5,13.3
 2002/11/05, 7:15,17.2,49,13.3,14.1
 2002/11/05, 7:30,17.1,47,13.3,14.4
 2002/11/05, 7:45,16.9,47,13.1,14.4
 2002/11/05, 8:00,16.9,49,13,13.7
 2002/11/05, 8:15,17.5,49,13.1,13.7
 2002/11/05, 8:30,17.3,48,13.1,14.1
 2002/11/05, 8:45,17.2,49,13.1,14.1
 2002/11/05, 9:00,17,49,13.3,14.1
 2002/11/05, 9:15,17,48,13.3,13.5
 2002/11/05, 9:30,16.9,48,13.2,13.5
 2002/11/05, 9:45,16.9,48,13.2,13.5
 2002/11/05,10:00,16.8,48,13.5,13.5
 2002/11/05,10:15,16.9,48,13.6,13.5
 2002/11/05,10:30,16.9,48,13.7,13.5
 2002/11/05,10:45,16.9,48,13.8,13.5
 2002/11/05,11:00,17,48,13.9,13.5
 2002/11/05,11:15,17,48,14.1,12.8
 2002/11/05,11:30,17.1,48,14.2,12.8
 2002/11/05,11:45,17.1,48,14.2,12.8
 2002/11/05,12:00,17.3,46,14.8,12.8
 2002/11/05,12:15,17.5,46,15,12.8
 2002/11/05,12:30,17.4,46,14.8,12.9
 2002/11/05,12:45,17.4,47,15,12.9
 2002/11/05,13:00,17.4,46,15,12.9
 2002/11/05,13:15,17.3,47,15,12.9
 2002/11/05,13:30,17.7,45,15.4,12.9
 2002/11/05,13:45,17.5,47,15.2,13
 2002/11/05,14:00,17.4,47,15.2,13
 2002/11/05,14:15,17.4,47,15.1,13
 2002/11/05,14:30,17.2,46,15.1,13
 2002/11/05,14:45,17.4,46,15.3,13
 2002/11/05,15:00,17.6,45,15.4,13.1
 2002/11/05,15:15,17.8,45,15.7,13.1
 2002/11/05,15:30,17.6,45,15.9,13.1
 2002/11/05,15:45,17.8,45,16.1,13.1
 2002/11/05,16:00,17.5,45,16,13.1
 2002/11/05,16:15,17.4,47,15.8,13.2
 2002/11/05,16:30,17.3,48,15.7,13.2
 2002/11/05,16:45,17.2,48,15.5,13.2
 2002/11/05,17:00,17,48,15.4,13.2
 2002/11/05,17:15,16.9,48,15.1,12.6
 2002/11/05,17:30,18.1,56,15.2,12.6
 2002/11/05,17:45,18.3,48,15.3,12.6
 2002/11/05,18:00,18.2,49,15.2,12.7
 2002/11/05,18:15,17.9,51,15.1,13.9
 2002/11/05,18:30,20.1,48,15.4,14
 2002/11/05,18:45,21.2,44,15.9,14
 2002/11/05,19:00,21.4,45,16,14
 2002/11/05,19:15,22,44,16.2,14
 2002/11/05,19:30,22.5,43,16.6,14
 2002/11/05,19:45,22.7,44,16.8,14
 2002/11/05,20:00,22.9,43,16.9,13.4
 2002/11/05,20:15,22.7,44,17,13.5
 2002/11/05,20:30,22.6,45,17.3,13.7
 2002/11/05,20:45,22.6,43,17.3,13.7
 2002/11/05,21:00,22.5,46,17.4,13.7
 2002/11/05,21:15,22.7,45,17.2,13.9
 2002/11/05,21:30,22.7,40,17.2,14.1
 2002/11/05,21:45,22.8,45,17.3,14.1
 2002/11/05,22:00,22.8,44,17.3,14.1
 2002/11/05,22:15,22.9,43,17.2,14.1
 2002/11/05,22:30,22.6,44,17.1,14.1
 2002/11/05,22:45,21.3,47,16.9,14.1
 2002/11/05,23:00,21.7,45,16.7,14.2
 2002/11/05,23:15,20.6,47,16.5,13.2
 2002/11/05,23:30,20,48,16.4,13.2
 2002/11/05,23:45,19.8,48,16.2,13.2
 2002/11/06, 0:00,19.5,49,16,13.3
 2002/11/06, 0:15,19.3,49,15.8,13.3
 2002/11/06, 0:30,19.1,49,15.7,13.3
 2002/11/06, 0:45,18.9,49,15.6,13.4
 2002/11/06, 1:00,18.7,49,15.4,13.2
 2002/11/06, 1:15,18.6,49,15.3,13.1
 2002/11/06, 1:30,18.4,50,15.2,13.1
 2002/11/06, 1:45,18.2,50,15,13.1
 2002/11/06, 2:00,18.2,50,15,13.1
 2002/11/06, 2:15,18,50,14.8,13.1
 2002/11/06, 2:30,17.9,50,14.6,13.2
 2002/11/06, 2:45,17.8,50,14.6,13.2
 2002/11/06, 3:00,17.7,50,14.5,13.2
 2002/11/06, 3:15,17.5,49,14.4,13.2
 2002/11/06, 3:30,17.4,49,14.2,13.2
 2002/11/06, 3:45,17.4,50,14.2,13.2
 2002/11/06, 4:00,17.2,50,14.1,13.2
 2002/11/06, 4:15,17.2,50,14,13.3
 2002/11/06, 4:30,17.1,50,13.9,13.3
 2002/11/06, 4:45,17.1,49,13.7,13.3
 2002/11/06, 5:00,16.8,50,13.7,13.3
 2002/11/06, 5:15,16.8,50,13.5,13.3
 2002/11/06, 5:30,16.8,50,13.5,13.3
 2002/11/06, 5:45,16.6,49,13.4,13.3
 2002/11/06, 6:00,16.5,49,13.3,13.3
 2002/11/06, 6:15,16.4,50,13.3,13.3
 2002/11/06, 6:30,16.5,49,13.2,13.3
 2002/11/06, 6:45,16.5,50,13.1,13.5
 2002/11/06, 7:00,17.1,49,13,14.3
 2002/11/06, 7:15,16.9,49,13,14.3
 2002/11/06, 7:30,17.2,48,12.9,13.4
 2002/11/06, 7:45,16.8,49,12.9,13.4
 2002/11/06, 8:00,16.7,50,12.8,12.8
 2002/11/06, 8:15,16.5,51,12.9,12.8
 2002/11/06, 8:30,16.5,51,12.9,12.8
 2002/11/06, 8:45,16.4,51,12.9,12.8
 2002/11/06, 9:00,16.3,52,13,12.8
 2002/11/06, 9:15,16.2,52,13.1,12.8
 2002/11/06, 9:30,16.3,51,13.3,12.8
 2002/11/06, 9:45,16.3,51,13.3,12.9
 2002/11/06,10:00,16.3,51,13.5,12.9
 2002/11/06,10:15,16.5,50,13.7,12.9
 2002/11/06,10:30,16.6,49,13.8,12.9
 2002/11/06,10:45,16.6,49,14,12.9
 2002/11/06,11:00,16.5,49,14.1,12.9
 2002/11/06,11:15,16.9,50,14.3,12.9
 2002/11/06,11:30,17,54,14.5,13.4
 2002/11/06,11:45,17.2,54,14.8,13.5
 2002/11/06,12:00,17.5,53,15.1,13.5
 2002/11/06,12:15,18.1,50,15.3,13.5
 2002/11/06,12:30,18,49,15.3,13.6
 2002/11/06,12:45,17.8,49,15.4,13.6
 2002/11/06,13:00,18.3,48,16.2,13.6
 2002/11/06,13:15,18.6,47,16.8,13.6
 2002/11/06,13:30,18.9,46,17.5,13.6
 2002/11/06,13:45,19.1,46,18.1,13.6
 2002/11/06,14:00,19.4,45,18.5,13.7
 2002/11/06,14:15,19.3,45,18.4,13.7
 2002/11/06,14:30,19,46,18.2,13.7
 2002/11/06,14:45,19.3,45,18.5,12.4
 2002/11/06,15:00,19.1,46,18.3,12.4
 2002/11/06,15:15,19,46,18.3,12.5
 2002/11/06,15:30,19.4,45,18.9,12.5
 2002/11/06,15:45,19.6,44,19.2,12.3
 2002/11/06,16:00,19.3,44,19.3,12.3
 2002/11/06,16:15,19.3,48,19.5,12.3
 2002/11/06,16:30,19,47,19.2,12.4
 2002/11/06,16:45,21.2,41,18.9,12.4
 2002/11/06,17:00,22.1,40,19,12.5
 2002/11/06,17:15,22.4,41,18.8,12.6
 2002/11/06,17:30,22.6,43,19,12.6
 2002/11/06,17:45,23.5,78,19,12.7
 2002/11/06,18:00,23.3,41,18.9,12.7
 2002/11/06,18:15,23.3,41,18.9,12.7
 2002/11/06,18:30,23.5,41,18.9,14.3
 2002/11/06,18:45,23.6,43,19,14.3
 2002/11/06,19:00,23.8,44,19,14.3
 2002/11/06,19:15,23.9,41,18.9,14.3
 2002/11/06,19:30,22.3,48,18.6,14.3
 2002/11/06,19:45,21.4,48,18.3,13.8
 2002/11/06,20:00,21.1,47,18.1,13.9
 2002/11/06,20:15,20.7,48,18,13.9
 2002/11/06,20:30,20.5,48,17.8,13.3
 2002/11/06,20:45,20.4,47,17.6,13.5
 2002/11/06,21:00,20.1,46,17.4,13.5
 2002/11/06,21:15,20.2,47,17.2,13.7
 2002/11/06,21:30,20.2,47,17,14.1
 2002/11/06,21:45,19.8,47,16.9,14.1
 2002/11/06,22:00,19.4,48,16.9,14.2
 2002/11/06,22:15,19.2,48,16.8,13.7
 2002/11/06,22:30,19.3,48,16.6,13.7
 2002/11/06,22:45,19.1,49,16.6,13.7
 2002/11/06,23:00,19,50,16.5,13.8
 2002/11/06,23:15,19,49,16.3,13.8
 2002/11/06,23:30,18.8,49,16.2,13.8
 2002/11/06,23:45,18.6,48,16,13.8
 2002/11/07, 0:00,18.5,48,15.9,13.9
 2002/11/07, 0:15,18.5,47,15.7,13.9
 2002/11/07, 0:30,18.3,47,15.6,13.9
 2002/11/07, 0:45,18.2,47,15.4,14
 2002/11/07, 1:00,18.1,47,15.4,14
 2002/11/07, 1:15,18,47,15.2,14
 2002/11/07, 1:30,17.7,47,15.1,14
 2002/11/07, 1:45,17.6,47,15,14
 2002/11/07, 2:00,17.4,47,14.8,14.1
 2002/11/07, 2:15,17.3,48,14.7,14.1
 2002/11/07, 2:30,17.5,48,14.6,14.1
 2002/11/07, 2:45,17.4,47,14.5,14.1
 2002/11/07, 3:00,17.3,48,14.4,14.1
 2002/11/07, 3:15,17.2,47,14.2,14.1
 2002/11/07, 3:30,17.1,48,14.1,14.2
 2002/11/07, 3:45,17,48,14.1,14.2
 2002/11/07, 4:00,16.9,48,13.9,14.2
 2002/11/07, 4:15,16.8,48,13.8,14.2
 2002/11/07, 4:30,16.8,48,13.8,14.2
 2002/11/07, 4:45,16.6,48,13.6,14.2
 2002/11/07, 5:00,16.5,48,13.5,14.2
 2002/11/07, 5:15,16.4,48,13.5,14.2
 2002/11/07, 5:30,16.3,48,13.3,14.2
 2002/11/07, 5:45,16.2,48,13.2,14.2
 2002/11/07, 6:00,16.1,48,13.1,14.2
 2002/11/07, 6:15,16,48,13,14.2
 2002/11/07, 6:30,15.9,48,12.9,14.2
 2002/11/07, 6:45,15.8,49,12.8,14.2
 2002/11/07, 7:00,16.6,48,12.8,12.9
 2002/11/07, 7:15,16.3,49,12.7,13
 2002/11/07, 7:30,17.2,49,12.6,13.9
 2002/11/07, 7:45,16.6,48,12.6,14
 2002/11/07, 8:00,16.3,49,12.5,14
 2002/11/07, 8:15,16.2,49,12.5,12.8
 2002/11/07, 8:30,15.8,50,12.6,12.8
 2002/11/07, 8:45,15.8,50,12.6,12.8
 2002/11/07, 9:00,15.9,49,12.6,12.9
 2002/11/07, 9:15,16.1,50,12.7,12.9
 2002/11/07, 9:30,16.2,52,12.9,12.9
 2002/11/07, 9:45,16.4,53,13,12.9
 2002/11/07,10:00,16.6,52,13.2,13
 2002/11/07,10:15,16.9,51,13.5,13
 2002/11/07,10:30,17,51,13.9,13
 2002/11/07,10:45,17,51,14.1,13
 2002/11/07,11:00,17.3,49,14.4,13
 2002/11/07,11:15,17.4,49,14.9,13
 2002/11/07,11:30,17.7,49,15.3,13.1
 2002/11/07,11:45,18,48,15.8,12.2
 2002/11/07,12:00,18.1,56,16.3,12.3
 2002/11/07,12:15,18.5,49,16.8,12.3
 2002/11/07,12:30,18.7,47,17.1,12.3
 2002/11/07,12:45,19.1,47,17.7,12.3
 2002/11/07,13:00,19.1,46,18.1,12.4
 2002/11/07,13:15,19.3,46,18.2,12.4
 2002/11/07,13:30,19.1,46,18.1,12.5
 2002/11/07,13:45,19.1,46,18.2,12.5
 2002/11/07,14:00,19,46,17.9,12.6
 2002/11/07,14:15,18.8,47,17.9,12.6
 2002/11/07,14:30,18.9,47,17.8,12
 2002/11/07,14:45,19.1,47,17.8,12.1
 2002/11/07,15:00,19.3,47,18.1,12.2
 2002/11/07,15:15,19.3,47,17.9,12.2
 2002/11/07,15:30,19.3,47,17.8,12.3
 2002/11/07,15:45,19.3,47,17.9,12.3
 2002/11/07,16:00,19.3,47,18.1,12.1
 2002/11/07,16:15,19.4,45,18,13.5
 2002/11/07,16:30,19.1,46,18,13.6
 2002/11/07,16:45,19,47,17.8,13.6
 2002/11/07,17:00,19,47,17.7,13.3
 2002/11/07,17:15,21.2,42,17.9,13.3
 2002/11/07,17:30,21.7,42,18.1,13.3
 2002/11/07,17:45,23.1,40,18.4,13.3
 2002/11/07,18:00,24.2,69,18.7,13.3
 2002/11/07,18:15,24.6,37,19.1,13.4
 2002/11/07,18:30,24.8,38,19.2,13.1
 2002/11/07,18:45,24.8,39,19.5,13.4
 2002/11/07,19:00,25.2,38,19.9,13.5
 2002/11/07,19:15,26,36,20,13.5
 2002/11/07,19:30,26.4,35,20.3,13.5
 2002/11/07,19:45,26.5,35,20.5,13.6
 2002/11/07,20:00,26.7,35,20.5,13
 2002/11/07,20:15,27.2,34,20.8,13.4
 2002/11/07,20:30,23.8,43,20.1,13.5